Flag for U.S.A. Weather past 2 weeks in Monterey, California, U.S.A.

Now
67 °F

Sunny.


Feels Like: 67 °F
Forecast: 59 / 71 °F
Wind: 9 mph from West

Location: Monterey Peninsula Airport

Current Time: Aug 1, 2014 at 5:22:49 PM

Latest Report: Aug 1, 2014 at 4:54 PM


Visibility: 10 mi

Pressure: 29.96 "Hg

Humidity: 71%

Dew point: 57 °F

Location of MontereyLocation

Historic Weather in Monterey — Graph

°F

Monterey temperature yesterday

Maximum temperature yesterday: 69 °F (at 3:54 PM)
Minimum temperature yesterday: 57 °F (at 3:54 AM)
Average temperature yesterday: 61 °F

Past Weeks' High & Low Weather Summary

 TemperatureHumidityPressure
High80 °F (Jul 25, 1:54 PM)100% (Jul 25, 7:03 AM)30.18 "Hg (Jul 25, 7:03 AM)
Low55 °F (Aug 1, 7:04 AM)42% (Jul 25, 1:54 PM)29.88 "Hg (Jul 25, 7:03 AM)
Average64 °F79%30.03 "Hg
* Reported Jul 17 3:54 PM — Aug 1 3:54 PM, Monterey, Weather by CustomWeather, © 2014

Note: Actual official high and low records may vary slightly from our data, if they occured in-between our weather recording intervals... More about our weather records

Advertising

Monterey weather history for previous 24 hours

 ConditionsComfort  
Time TempWeatherWind HumidityBarometerVisibility
3:54 PM
Aug 1
69 °FSunny.9 mph66%29.96 "Hg10 mi
2:54 PM68 °FSunny.12 mph70%29.97 "Hg9 mi
1:54 PM66 °FSunny.12 mph73%29.98 "Hg10 mi
12:54 PM64 °FSunny.8 mph78%29.98 "Hg8 mi
11:54 AM65 °FScattered clouds.7 mph76%29.99 "Hg10 mi
10:54 AM64 °FScattered clouds.7 mph78%29.99 "Hg8 mi
9:54 AM60 °FLow clouds.5 mph90%29.99 "Hg10 mi
9:01 AM59 °FLow clouds.No wind88%29.95 "Hg10 mi
7:57 AM57 °FFog.No wind100%29.94 "Hg2 mi
7:04 AM55 °FFog.No wind100%29.94 "Hg1 mi
6:54 AM56 °FFog.3 mph97%29.97 "Hg2 mi
5:54 AM57 °FLow clouds.3 mph96%29.96 "Hg7 mi
4:54 AM57 °FLow clouds.5 mph93%29.95 "Hg7 mi
3:54 AM57 °FLow clouds.5 mph93%29.96 "Hg10 mi
2:54 AM56 °FLow clouds.No wind93%29.96 "Hg10 mi
1:54 AM58 °FLow clouds.No wind93%29.96 "Hg10 mi
12:54 AM58 °FLow clouds.No wind93%29.97 "Hg10 mi
11:54 PM
Jul 31
58 °FFog.No wind97%29.97 "Hg3 mi
10:54 PM59 °FLow clouds.No wind93%29.97 "Hg7 mi
9:54 PM60 °FLow clouds.3 mph90%29.98 "Hg8 mi
8:54 PM60 °FLow clouds.No wind90%29.98 "Hg8 mi
7:54 PM61 °FPartly sunny.5 mph87%29.97 "Hg10 mi
6:54 PM65 °FSunny.8 mph76%29.96 "Hg10 mi
5:54 PM65 °FSunny.8 mph76%29.97 "Hg10 mi
Weather by CustomWeather, © 2014

See weather overviewHow to use our weather pages